Total_Precipitation_Accumulation
1.15 1.08 0.99 0.97 0.91 0.78 0.68 0.65 0.55 0.52 0.48 0.41 0.34 0.28 0.25 0.25 0.25 0.25 0.24 0.22 0.28 0.40 0.56 0.68 0.77 0.77 0.75 0.72 0.73 0.71 0.66 0.63 0.60 0.58 0.57 0.57 0.57 0.57 0.57 0.57 0.57 0.57 0.59
1.35 1.23 1.14 1.10 1.02 0.92 0.83 0.75 0.64 0.62 0.59 0.53 0.44 0.35 0.30 0.29 0.28 0.28 0.26 0.24 0.25 0.28 0.43 0.62 0.80 0.85 0.85 0.88 0.91 0.89 0.84 0.78 0.73 0.70 0.68 0.68 0.66 0.64 0.65 0.66 0.64 0.66 0.68
1.61 1.50 1.36 1.23 1.08 1.01 0.99 0.98 0.93 0.83 0.73 0.63 0.54 0.46 0.38 0.34 0.31 0.29 0.27 0.26 0.25 0.25 0.34 0.50 0.66 0.79 0.82 0.92 1.03 1.02 0.98 0.94 0.92 0.87 0.82 0.79 0.79 0.79 0.79 0.80 0.80 0.82 0.85
1.75 1.66 1.48 1.34 1.28 1.24 1.18 1.16 1.13 1.04 0.88 0.73 0.63 0.59 0.51 0.42 0.36 0.36 0.34 0.30 0.27 0.24 0.28 0.39 0.47 0.57 0.70 0.85 1.03 1.12 1.06 1.00 0.97 0.93 0.88 0.85 0.84 0.86 0.88 0.90 0.93 0.95 1.01
1.82 1.73 1.58 1.43 1.42 1.39 1.31 1.25 1.23 1.16 1.06 0.91 0.79 0.73 0.68 0.59 0.53 0.50 0.48 0.44 0.39 0.35 0.32 0.37 0.40 0.41 0.50 0.66 0.88 1.08 1.13 1.07 1.02 1.01 1.01 0.97 0.94 0.95 0.97 1.01 1.05 1.10 1.19
1.86 1.77 1.67 1.57 1.49 1.51 1.47 1.37 1.27 1.20 1.14 1.11 1.04 0.92 0.86 0.79 0.69 0.63 0.59 0.54 0.51 0.48 0.45 0.43 0.41 0.39 0.40 0.51 0.65 0.89 1.06 1.10 1.09 1.08 1.09 1.09 1.06 1.06 1.08 1.16 1.25 1.34 1.46
1.93 1.81 1.67 1.65 1.61 1.53 1.51 1.49 1.48 1.44 1.35 1.32 1.35 1.22 1.00 0.91 0.84 0.72 0.68 0.63 0.59 0.58 0.54 0.52 0.49 0.45 0.44 0.48 0.56 0.69 0.87 1.04 1.18 1.22 1.20 1.17 1.16 1.22 1.31 1.39 1.49 1.59 1.69
2.02 1.91 1.76 1.61 1.63 1.62 1.53 1.53 1.56 1.61 1.64 1.63 1.62 1.59 1.41 1.19 0.94 0.76 0.73 0.71 0.68 0.69 0.69 0.66 0.61 0.57 0.53 0.54 0.55 0.60 0.71 0.87 1.06 1.26 1.35 1.35 1.36 1.40 1.54 1.72 1.83 1.91 1.99
2.28 2.08 1.99 1.84 1.67 1.65 1.58 1.49 1.44 1.44 1.52 1.64 1.70 1.79 1.66 1.36 1.09 0.92 0.79 0.74 0.72 0.71 0.70 0.71 0.69 0.65 0.61 0.57 0.52 0.53 0.59 0.69 0.89 1.15 1.41 1.56 1.61 1.71 1.87 2.06 2.26 2.38 2.42
2.56 2.43 2.26 2.13 1.95 1.81 1.71 1.65 1.62 1.54 1.52 1.54 1.58 1.57 1.52 1.37 1.31 1.18 0.96 0.86 0.80 0.77 0.75 0.72 0.68 0.67 0.69 0.68 0.66 0.65 0.68 0.72 0.88 1.11 1.41 1.65 1.84 2.06 2.31 2.49 2.60 2.71 2.72
2.63 2.52 2.42 2.32 2.14 2.00 1.91 1.86 1.78 1.74 1.72 1.64 1.57 1.52 1.50 1.34 1.21 1.23 1.10 0.93 0.91 0.87 0.84 0.80 0.76 0.74 0.74 0.77 0.77 0.80 0.84 0.85 0.98 1.19 1.51 1.86 2.20 2.50 2.78 2.97 3.03 2.97 2.92
2.78 2.58 2.41 2.35 2.27 2.15 2.06 2.02 2.00 1.92 1.83 1.75 1.71 1.65 1.63 1.57 1.36 1.32 1.24 1.05 1.02 0.95 0.92 0.90 0.89 0.87 0.86 0.88 0.90 0.99 0.95 0.94 1.02 1.23 1.59 1.97 2.22 2.43 2.62 2.86 3.07 3.15 3.15
2.65 2.62 2.48 2.41 2.39 2.23 2.14 2.10 2.05 1.96 1.92 1.84 1.80 1.76 1.70 1.60 1.52 1.55 1.58 1.41 1.26 1.08 1.02 1.00 0.95 0.93 0.94 0.96 0.98 1.09 1.04 1.07 1.10 1.17 1.40 1.78 1.95 1.99 2.06 2.26 2.60 2.93 3.06
2.48 2.52 2.53 2.41 2.39 2.33 2.18 2.09 2.02 1.91 1.87 1.85 1.78 1.74 1.71 1.64 1.61 1.65 1.72 1.78 1.69 1.40 1.19 1.06 1.01 1.06 1.09 1.08 1.11 1.16 0.99 1.05 1.04 1.09 1.19 1.37 1.46 1.44 1.49 1.65 1.93 2.23 2.46
2.37 2.37 2.39 2.30 2.22 2.19 2.11 2.04 1.97 1.85 1.78 1.73 1.67 1.64 1.61 1.54 1.55 1.56 1.64 1.81 2.02 1.86 1.43 1.11 1.02 1.05 1.13 1.15 1.21 1.12 0.99 1.07 1.08 1.06 1.07 1.08 1.13 1.22 1.26 1.34 1.48 1.62 1.78
2.01 2.07 2.14 2.12 2.07 2.04 2.00 1.91 1.81 1.77 1.75 1.66 1.60 1.57 1.49 1.42 1.46 1.52 1.59 1.66 1.83 1.97 1.69 1.17 1.00 0.95 1.03 1.06 1.13 1.04 0.95 1.09 1.05 0.98 0.93 0.94 0.99 1.10 1.20 1.27 1.29 1.35 1.42
1.69 1.73 1.72 1.73 1.78 1.83 1.84 1.80 1.70 1.63 1.62 1.59 1.57 1.58 1.52 1.43 1.42 1.43 1.47 1.51 1.58 1.73 1.71 1.24 1.05 1.03 1.05 1.04 1.04 0.99 0.92 0.91 0.89 0.97 0.92 0.90 0.92 1.00 1.10 1.19 1.25 1.25 1.28
1.51 1.53 1.55 1.51 1.48 1.49 1.56 1.57 1.52 1.48 1.47 1.44 1.43 1.46 1.47 1.45 1.44 1.40 1.39 1.38 1.35 1.36 1.47 1.30 1.02 0.99 0.99 0.98 1.03 1.05 0.99 0.90 0.81 0.89 0.89 0.87 0.89 0.92 0.98 1.08 1.19 1.26 1.27
1.49 1.42 1.40 1.39 1.35 1.33 1.34 1.36 1.39 1.38 1.37 1.35 1.33 1.34 1.36 1.41 1.39 1.30 1.26 1.24 1.22 1.24 1.32 1.34 1.12 0.99 0.97 0.97 1.03 1.04 1.01 0.98 0.91 0.93 0.96 0.93 0.94 0.93 0.98 1.05 1.13 1.24 1.31
1.53 1.42 1.34 1.29 1.27 1.28 1.28 1.29 1.34 1.37 1.34 1.32 1.32 1.32 1.28 1.27 1.23 1.19 1.19 1.18 1.25 1.36 1.39 1.43 1.31 1.12 1.05 1.01 1.08 1.08 1.06 1.00 1.01 0.99 1.08 1.11 1.10 1.06 1.03 1.05 1.09 1.16 1.26
1.44 1.43 1.37 1.32 1.27 1.26 1.28 1.30 1.31 1.34 1.34 1.33 1.28 1.25 1.22 1.24 1.22 1.20 1.22 1.22 1.29 1.46 1.57 1.62 1.52 1.34 1.22 1.14 1.10 1.06 1.13 1.14 1.15 1.11 1.11 1.11 1.12 1.12 1.11 1.14 1.15 1.15 1.23
1.33 1.39 1.41 1.37 1.32 1.29 1.47 1.44 1.33 1.31 1.33 1.32 1.28 1.20 1.17 1.23 1.20 1.22 1.25 1.31 1.45 1.63 1.76 1.79 1.69 1.49 1.21 1.09 1.11 1.25 1.41 1.59 1.53 1.15 1.15 1.18 1.15 1.22 1.16 1.14 1.28 1.32 1.31
1.32 1.39 1.42 1.44 1.41 1.44 1.50 1.35 1.35 1.25 1.23 1.23 1.21 1.17 1.11 1.07 1.13 1.04 1.13 1.26 1.34 1.47 1.55 1.56 1.53 1.25 1.10 1.06 1.30 1.59 1.64 1.68 1.47 1.18 1.35 1.49 1.32 1.30 1.20 1.23 1.42 1.32 1.28
1.26 1.35 1.41 1.37 1.34 1.38 1.39 1.25 1.23 1.16 1.16 1.14 1.11 1.10 1.10 1.08 1.07 1.13 1.19 1.25 1.12 1.05 1.09 1.08 1.12 1.10 1.11 1.23 1.54 1.88 2.00 2.00 1.75 1.52 1.54 1.68 1.38 1.26 1.21 1.25 1.44 1.34 1.22
1.21 1.22 1.25 1.27 1.25 1.27 1.28 1.17 1.13 1.05 1.08 1.02 0.97 0.97 1.01 1.00 1.17 1.34 1.39 1.40 1.19 0.97 0.98 1.10 1.22 1.26 1.34 1.45 1.59 1.95 2.25 2.39 2.08 1.56 1.39 1.52 1.41 1.33 1.34 1.31 1.37 1.44 1.31
1.19 1.15 1.11 1.10 1.08 1.08 1.15 1.09 1.06 0.99 1.00 0.95 0.91 0.90 1.02 1.04 1.20 1.34 1.29 1.37 1.33 1.10 1.03 1.08 1.14 1.18 1.16 1.26 1.52 1.70 2.23 2.80 2.49 1.90 1.32 1.45 1.49 1.60 1.87 1.44 1.26 1.32 1.35